| time (UTC) | temp F | wind direction | speed MPH | gust MPH | rain 1hr in | rain 24hr in | rain mn in | humidity % | barometer mb |
| 20260507083035 | 56 | 203 | 0.0 | 2.0 | 0.00 | 0.00 | 0.00 | 59 | 1016.5 |
| 20260507082032 | 56 | 351 | 0.0 | 2.0 | 0.00 | 0.00 | 0.00 | 61 | 1016.5 |
| 20260507081029 | 55 | 270 | 0.0 | 2.0 | 0.00 | 0.00 | 0.00 | 62 | 1016.4 |
| 20260507080027 | 55 | 293 | 0.0 | 4.0 | 0.00 | 0.00 | 0.00 | 62 | 1016.3 |
| 20260507075024 | 55 | 316 | 0.0 | 2.0 | 0.00 | 0.00 | 0.00 | 62 | 1016.2 |
| 20260507074021 | 56 | 293 | 0.0 | 7.0 | 0.00 | 0.00 | 0.00 | 63 | 1016.1 |
| 20260507073019 | 54 | 347 | 1.0 | 4.0 | 0.00 | 0.00 | 0.00 | 66 | 1016.2 |
| 20260507072016 | 54 | 309 | 0.0 | 4.0 | 0.00 | 0.00 | 0.00 | 66 | 1016.2 |
| 20260507071114 | 54 | 0.0 | 2.0 | 0.00 | 0.00 | 0.00 | 68 | 1016.2 | |
| 20260507070111 | 54 | 315 | 0.0 | 2.0 | 0.00 | 0.00 | 0.00 | 67 | 1016.0 |
| 20260507065108 | 53 | 328 | 1.0 | 4.0 | 0.00 | 0.00 | 0.00 | 68 | 1015.9 |
| 20260507064106 | 53 | 0.0 | 2.0 | 0.00 | 0.00 | 0.00 | 69 | 1015.9 | |
| 20260507063103 | 52 | 0.0 | 2.0 | 0.00 | 0.00 | 0.00 | 69 | 1015.8 | |
| 20260507062100 | 52 | 293 | 0.0 | 2.0 | 0.00 | 0.00 | 0.00 | 70 | 1015.7 |
| 20260507061058 | 52 | 338 | 1.0 | 2.0 | 0.00 | 0.00 | 0.00 | 71 | 1015.8 |
| 20260507060055 | 51 | 347 | 0.0 | 2.0 | 0.00 | 0.00 | 0.00 | 72 | 1016.0 |
| 20260507055052 | 51 | 0 | 0.0 | 4.0 | 0.00 | 0.00 | 0.00 | 72 | 1016.0 |
| 20260507054050 | 49 | 336 | 1.0 | 2.0 | 0.00 | 0.00 | 0.00 | 74 | 1015.9 |
| 20260507053047 | 49 | 180 | 0.0 | 2.0 | 0.00 | 0.00 | 0.00 | 75 | 1015.8 |
| 20260507052044 | 49 | 338 | 0.0 | 2.0 | 0.00 | 0.00 | 0.00 | 75 | 1015.6 |
| 20260507051042 | 48 | 338 | 0.0 | 2.0 | 0.00 | 0.00 | 0.00 | 76 | 1015.5 |
| 20260507050039 | 47 | 0.0 | 2.0 | 0.00 | 0.00 | 0.00 | 78 | 1015.2 | |
| 20260507045036 | 47 | 158 | 0.0 | 2.0 | 0.00 | 0.00 | 0.00 | 78 | 1014.7 |
| 20260507044034 | 45 | 0.0 | 0.0 | 0.00 | 0.00 | 0.00 | 82 | 1014.5 | |
| 20260507043031 | 45 | 0.0 | 0.0 | 0.00 | 0.00 | 0.00 | 83 | 1014.4 | |
| 20260507042029 | 44 | 0.0 | 0.0 | 0.00 | 0.00 | 0.00 | 84 | 1014.3 | |
| 20260507041026 | 44 | 0.0 | 0.0 | 0.00 | 0.00 | 0.00 | 84 | 1014.2 | |
| 20260507040023 | 44 | 0.0 | 0.0 | 0.00 | 0.00 | 0.00 | 84 | 1014.0 | |
| 20260507035021 | 45 | 0.0 | 0.0 | 0.00 | 0.00 | 0.00 | 83 | 1013.9 | |
| 20260507034018 | 45 | 0.0 | 2.0 | 0.00 | 0.00 | 0.00 | 83 | 1013.9 | |
| 20260507033015 | 45 | 0.0 | 0.0 | 0.00 | 0.00 | 0.00 | 82 | 1013.6 | |
| 20260507032113 | 45 | 338 | 0.0 | 2.0 | 0.00 | 0.00 | 0.00 | 82 | 1013.6 |
| 20260507031111 | 46 | 0.0 | 2.0 | 0.00 | 0.00 | 0.00 | 82 | 1013.6 | |
| 20260507030108 | 46 | 0.0 | 2.0 | 0.00 | 0.00 | 0.00 | 81 | 1013.5 | |
| 20260507025105 | 47 | 0.0 | 2.0 | 0.00 | 0.00 | 0.00 | 80 | 1013.7 | |
| 20260507024103 | 47 | 0.0 | 2.0 | 0.00 | 0.00 | 0.00 | 80 | 1013.5 | |
| 20260507023100 | 47 | 352 | 0.0 | 4.0 | 0.00 | 0.00 | 0.00 | 80 | 1013.5 |
| 20260507022057 | 47 | 187 | 0.0 | 2.0 | 0.00 | 0.00 | 0.00 | 80 | 1013.3 |
| 20260507021055 | 47 | 270 | 0.0 | 2.0 | 0.00 | 0.00 | 0.00 | 80 | 1013.2 |
| 20260507020052 | 47 | 338 | 0.0 | 2.0 | 0.00 | 0.00 | 0.00 | 80 | 1013.1 |
| 20260507015049 | 47 | 106 | 1.0 | 4.0 | 0.00 | 0.00 | 0.00 | 80 | 1013.1 |
| 20260507014047 | 47 | 0.0 | 2.0 | 0.00 | 0.00 | 0.00 | 80 | 1012.9 | |
| 20260507013044 | 48 | 0.0 | 2.0 | 0.00 | 0.00 | 0.00 | 80 | 1012.9 | |
| 20260507012041 | 48 | 220 | 1.0 | 4.0 | 0.00 | 0.00 | 0.00 | 80 | 1012.8 |
| 20260507011038 | 48 | 0 | 0.0 | 2.0 | 0.00 | 0.00 | 0.00 | 80 | 1012.8 |
| 20260507010036 | 48 | 210 | 0.0 | 2.0 | 0.00 | 0.00 | 0.00 | 80 | 1012.8 |
| 20260507005033 | 48 | 315 | 0.0 | 4.0 | 0.00 | 0.00 | 0.00 | 80 | 1012.7 |
| 20260507004030 | 48 | 49 | 1.0 | 4.0 | 0.00 | 0.00 | 0.00 | 80 | 1012.7 |
| 20260507003028 | 48 | 340 | 1.0 | 2.0 | 0.00 | 0.00 | 0.00 | 79 | 1012.7 |
| 20260507002025 | 48 | 14 | 1.0 | 4.0 | 0.00 | 0.00 | 0.00 | 79 | 1012.6 |
| 20260507001023 | 49 | 45 | 0.0 | 2.0 | 0.00 | 0.00 | 0.00 | 79 | 1012.5 |
| 20260507000020 | 49 | 295 | 1.0 | 2.0 | 0.00 | 0.00 | 0.00 | 79 | 1012.7 |
| 20260506235017 | 49 | 234 | 0.0 | 2.0 | 0.00 | 0.00 | 0.00 | 79 | 1012.6 |
| 20260506234015 | 49 | 0.0 | 2.0 | 0.00 | 0.00 | 0.00 | 79 | 1012.7 | |
| 20260506233112 | 49 | 344 | 0.0 | 4.0 | 0.00 | 0.00 | 0.00 | 79 | 1012.6 |
| 20260506232109 | 49 | 326 | 0.0 | 2.0 | 0.00 | 0.00 | 0.00 | 79 | 1012.5 |
| 20260506231107 | 49 | 344 | 0.0 | 4.0 | 0.00 | 0.00 | 0.00 | 79 | 1012.5 |
| 20260506230104 | 49 | 360 | 0.0 | 2.0 | 0.00 | 0.00 | 0.00 | 79 | 1012.5 |
| 20260506225101 | 49 | 0.0 | 2.0 | 0.00 | 0.00 | 0.00 | 79 | 1012.4 | |
| 20260506224059 | 49 | 73 | 1.0 | 4.0 | 0.00 | 0.00 | 0.00 | 79 | 1012.4 |
| 20260506223056 | 49 | 135 | 0.0 | 4.0 | 0.00 | 0.00 | 0.00 | 79 | 1012.4 |
| 20260506222054 | 49 | 77 | 0.0 | 4.0 | 0.00 | 0.00 | 0.00 | 79 | 1012.2 |
| 20260506221051 | 49 | 0 | 0.0 | 4.0 | 0.00 | 0.00 | 0.00 | 79 | 1012.3 |
| 20260506220048 | 49 | 124 | 1.0 | 4.0 | 0.00 | 0.00 | 0.00 | 79 | 1012.2 |
| 20260506215046 | 49 | 0.0 | 2.0 | 0.00 | 0.00 | 0.00 | 78 | 1012.2 | |
| 20260506214043 | 49 | 0 | 0.0 | 2.0 | 0.00 | 0.00 | 0.00 | 78 | 1012.2 |
| 20260506213041 | 50 | 0 | 1.0 | 2.0 | 0.00 | 0.00 | 0.00 | 77 | 1012.0 |
| 20260506212038 | 50 | 241 | 1.0 | 2.0 | 0.00 | 0.00 | 0.00 | 76 | 1011.9 |
| 20260506211035 | 50 | 360 | 0.0 | 2.0 | 0.00 | 0.00 | 0.00 | 75 | 1012.1 |
| 20260506210033 | 50 | 164 | 0.0 | 2.0 | 0.00 | 0.00 | 0.00 | 75 | 1012.0 |
| 20260506205030 | 50 | 293 | 0.0 | 4.0 | 0.00 | 0.00 | 0.00 | 74 | 1012.0 |
| 20260506204027 | 50 | 0.0 | 2.0 | 0.00 | 0.00 | 0.00 | 73 | 1012.0 | |
| 20260506203025 | 50 | 351 | 1.0 | 4.0 | 0.00 | 0.00 | 0.00 | 72 | 1012.0 |
| 20260506202022 | 51 | 225 | 0.0 | 2.0 | 0.00 | 0.00 | 0.00 | 71 | 1011.9 |
| 20260506201019 | 51 | 23 | 0.0 | 2.0 | 0.00 | 0.00 | 0.00 | 70 | 1011.8 |
| 20260506200017 | 51 | 338 | 0.0 | 2.0 | 0.00 | 0.00 | 0.00 | 68 | 1011.9 |
| 20260506195114 | 52 | 0.0 | 4.0 | 0.00 | 0.00 | 0.00 | 66 | 1011.6 | |
| 20260506194112 | 52 | 338 | 0.0 | 2.0 | 0.00 | 0.00 | 0.00 | 66 | 1011.6 |
| 20260506193109 | 52 | 338 | 0.0 | 2.0 | 0.00 | 0.00 | 0.00 | 66 | 1011.5 |
| 20260506192101 | 52 | 0.0 | 0.0 | 0.00 | 0.00 | 0.00 | 65 | 1011.4 | |
| 20260506191058 | 53 | 0.0 | 2.0 | 0.00 | 0.00 | 0.00 | 60 | 1011.4 | |
| 20260506190055 | 53 | 300 | 0.0 | 2.0 | 0.00 | 0.00 | 0.00 | 58 | 1011.2 |
| 20260506185048 | 53 | 203 | 0.0 | 2.0 | 0.00 | 0.00 | 0.00 | 57 | 1011.1 |
| 20260506184045 | 53 | 338 | 0.0 | 2.0 | 0.00 | 0.00 | 0.00 | 57 | 1011.0 |
| 20260506183037 | 54 | 306 | 1.0 | 6.0 | 0.00 | 0.00 | 0.00 | 55 | 1011.0 |
| 20260506182034 | 54 | 301 | 1.0 | 4.0 | 0.00 | 0.00 | 0.00 | 54 | 1010.9 |
| 20260506181032 | 54 | 213 | 1.0 | 4.0 | 0.00 | 0.00 | 0.00 | 56 | 1010.9 |
| 20260506180023 | 54 | 171 | 1.0 | 6.0 | 0.00 | 0.00 | 0.00 | 62 | 1010.8 |
| 20260506175020 | 55 | 293 | 0.0 | 2.0 | 0.00 | 0.00 | 0.00 | 65 | 1010.8 |
| 20260506174112 | 55 | 270 | 0.0 | 2.0 | 0.00 | 0.00 | 0.00 | 66 | 1010.7 |
| 20260506173110 | 55 | 0 | 0.0 | 2.0 | 0.00 | 0.00 | 0.00 | 66 | 1010.6 |
| 20260506172101 | 55 | 0.0 | 0.0 | 0.00 | 0.00 | 0.00 | 66 | 1010.6 | |
| 20260506171058 | 55 | 0.0 | 0.0 | 0.00 | 0.00 | 0.00 | 66 | 1010.5 | |
| 20260506170055 | 55 | 0.0 | 0.0 | 0.00 | 0.00 | 0.00 | 67 | 1010.4 | |
| 20260506165047 | 56 | 0.0 | 0.0 | 0.00 | 0.00 | 0.00 | 66 | 1010.4 | |
| 20260506164044 | 56 | 0.0 | 2.0 | 0.00 | 0.00 | 0.00 | 64 | 1010.5 | |
| 20260506163036 | 56 | 0.0 | 2.0 | 0.00 | 0.00 | 0.00 | 62 | 1010.4 | |
| 20260506162033 | 56 | 23 | 0.0 | 2.0 | 0.00 | 0.00 | 0.00 | 61 | 1010.4 |
| 20260506161024 | 56 | 37 | 1.0 | 2.0 | 0.00 | 0.00 | 0.00 | 60 | 1010.6 |
| 20260506160022 | 57 | 203 | 0.0 | 2.0 | 0.00 | 0.00 | 0.00 | 60 | 1010.6 |
| 20260506155019 | 57 | 338 | 0.0 | 2.0 | 0.00 | 0.00 | 0.00 | 61 | 1010.6 |
| 20260506154111 | 57 | 0 | 0.0 | 4.0 | 0.00 | 0.00 | 0.00 | 58 | 1010.7 |
| 20260506153108 | 57 | 0.0 | 2.0 | 0.00 | 0.00 | 0.00 | 59 | 1010.7 | |
| 20260506152100 | 57 | 0.0 | 2.0 | 0.00 | 0.00 | 0.00 | 59 | 1010.8 | |
| 20260506151057 | 57 | 0.0 | 0.0 | 0.00 | 0.00 | 0.00 | 60 | 1010.8 | |
| 20260506150049 | 57 | 0.0 | 2.0 | 0.00 | 0.00 | 0.00 | 60 | 1010.8 | |
| 20260506145046 | 57 | 0.0 | 2.0 | 0.00 | 0.00 | 0.00 | 60 | 1010.8 | |
| 20260506144043 | 57 | 0 | 1.0 | 2.0 | 0.00 | 0.00 | 0.00 | 57 | 1010.8 |
| 20260506143035 | 57 | 11 | 0.0 | 2.0 | 0.00 | 0.00 | 0.00 | 57 | 1010.9 |
| 20260506142032 | 58 | 0.0 | 0.0 | 0.00 | 0.00 | 0.00 | 54 | 1010.9 | |
| 20260506141023 | 58 | 0 | 0.0 | 2.0 | 0.00 | 0.00 | 0.00 | 52 | 1010.9 |
| 20260506140021 | 57 | 342 | 2.0 | 4.0 | 0.00 | 0.00 | 0.00 | 49 | 1011.0 |
| 20260506135113 | 58 | 323 | 1.0 | 6.0 | 0.00 | 0.00 | 0.00 | 51 | 1010.8 |
| 20260506133108 | 58 | 311 | 1.0 | 2.0 | 0.00 | 0.00 | 0.00 | 48 | 1010.9 |
| 20260506132100 | 58 | 217 | 1.0 | 4.0 | 0.00 | 0.00 | 0.00 | 47 | 1010.8 |
| 20260506131057 | 58 | 355 | 0.0 | 4.0 | 0.00 | 0.00 | 0.00 | 48 | 1010.9 |
| 20260506130049 | 58 | 112 | 1.0 | 4.0 | 0.00 | 0.00 | 0.00 | 46 | 1010.8 |
| 20260506125047 | 58 | 1 | 1.0 | 4.0 | 0.00 | 0.00 | 0.00 | 45 | 1010.9 |
| 20260506124044 | 58 | 351 | 1.0 | 7.0 | 0.00 | 0.00 | 0.00 | 45 | 1010.8 |
| 20260506123036 | 58 | 20 | 1.0 | 6.0 | 0.00 | 0.00 | 0.00 | 44 | 1010.8 |
| 20260506122033 | 59 | 276 | 2.0 | 9.0 | 0.00 | 0.00 | 0.00 | 43 | 1010.8 |
| 20260506121025 | 59 | 153 | 2.0 | 6.0 | 0.00 | 0.00 | 0.00 | 44 | 1010.8 |
| 20260506120022 | 59 | 117 | 1.0 | 6.0 | 0.00 | 0.00 | 0.00 | 44 | 1010.7 |
| 20260506115019 | 58 | 301 | 1.0 | 6.0 | 0.00 | 0.00 | 0.00 | 43 | 1010.6 |
| 20260506114112 | 58 | 298 | 2.0 | 6.0 | 0.00 | 0.00 | 0.00 | 43 | 1010.6 |
| 20260506113109 | 58 | 232 | 2.0 | 7.0 | 0.00 | 0.00 | 0.00 | 43 | 1010.5 |
| 20260506112101 | 58 | 12 | 1.0 | 4.0 | 0.00 | 0.00 | 0.00 | 45 | 1010.5 |
| 20260506111058 | 57 | 256 | 1.0 | 6.0 | 0.00 | 0.00 | 0.00 | 45 | 1010.6 |
| 20260506110056 | 57 | 170 | 2.0 | 4.0 | 0.00 | 0.00 | 0.00 | 46 | 1010.6 |
| 20260506105048 | 56 | 353 | 2.0 | 7.0 | 0.00 | 0.00 | 0.00 | 46 | 1010.6 |
| 20260506104045 | 56 | 233 | 2.0 | 9.0 | 0.00 | 0.00 | 0.00 | 46 | 1010.6 |
| 20260506103037 | 56 | 9 | 1.0 | 6.0 | 0.00 | 0.00 | 0.00 | 47 | 1010.5 |
| 20260506102039 | 56 | 169 | 2.0 | 6.0 | 0.00 | 0.00 | 0.00 | 47 | 1010.6 |
| 20260506101031 | 56 | 305 | 1.0 | 4.0 | 0.00 | 0.00 | 0.00 | 49 | 1010.5 |
| 20260506100023 | 56 | 222 | 2.0 | 7.0 | 0.00 | 0.00 | 0.00 | 48 | 1010.5 |
| 20260506095020 | 55 | 149 | 2.0 | 6.0 | 0.00 | 0.00 | 0.00 | 48 | 1010.4 |
| 20260506094112 | 55 | 83 | 1.0 | 6.0 | 0.00 | 0.00 | 0.00 | 49 | 1010.4 |
| 20260506093110 | 55 | 339 | 2.0 | 6.0 | 0.00 | 0.00 | 0.00 | 48 | 1010.5 |
| 20260506092103 | 54 | 23 | 2.0 | 6.0 | 0.00 | 0.00 | 0.00 | 49 | 1010.5 |
| 20260506091058 | 54 | 25 | 1.0 | 4.0 | 0.00 | 0.00 | 0.00 | 51 | 1010.4 |
| 20260506090056 | 54 | 87 | 1.0 | 6.0 | 0.00 | 0.00 | 0.00 | 52 | 1010.4 |
| 20260506085047 | 54 | 13 | 1.0 | 4.0 | 0.00 | 0.00 | 0.00 | 52 | 1010.2 |
| 20260506084044 | 53 | 344 | 2.0 | 6.0 | 0.00 | 0.00 | 0.00 | 52 | 1010.3 |